Temperature
17 18 19 19 16 14 16 17 17 18 18 20 20 20 18 18 18 19 20 19 19 18 17 15 15 14 13 13 12 12 12 12 12 11 11 11 11 11 11 11 11 10 11 11 11 11 11 11 11
18 18 19 19 14 15 16 17 17 18 20 20 20 20 19 20 20 20 20 19 19 18 17 16 15 14 13 13 13 12 12 12 11 11 11 11 10 10 10 11 11 11 11 11 11 11 11 11 11
18 18 19 14 14 15 17 18 17 19 20 20 20 20 20 21 20 20 20 19 19 18 17 16 15 14 13 13 13 12 12 12 11 11 11 11 10 10 10 11 11 11 11 11 11 11 11 11 11
18 18 18 14 16 16 17 18 18 19 20 20 20 19 20 21 21 20 20 19 19 18 17 16 15 14 13 13 13 12 12 11 11 11 11 10 10 10 11 11 11 11 11 11 11 11 11 11 11
18 18 15 15 16 17 16 17 18 18 19 20 20 19 20 20 20 20 20 19 19 18 17 16 15 14 13 13 12 12 12 11 11 11 10 10 10 10 11 11 11 11 11 11 11 11 11 11 11
18 15 14 15 16 17 17 18 19 18 19 19 20 19 20 21 20 20 19 19 18 18 17 16 15 14 13 13 12 12 11 11 11 11 10 10 10 10 10 10 11 11 10 11 11 11 11 11 11
17 13 14 16 16 17 18 19 19 18 19 19 20 19 20 20 20 20 19 18 18 17 17 16 15 14 13 12 12 11 11 11 10 10 10 10 10 10 10 10 10 10 10 10 10 10 10 10 10
18 14 15 15 16 18 18 19 19 19 19 20 20 19 20 20 20 19 19 18 17 17 16 15 15 14 13 12 11 11 11 10 10 10 10 10 9 9 9 10 10 10 10 10 10 10 10 10 10
18 14 14 16 17 18 19 19 20 20 20 20 20 20 20 20 20 19 18 18 17 16 16 15 14 14 13 12 11 11 11 10 10 10 10 9 9 9 9 9 9 9 9 9 9 9 9 9 9
17 14 16 16 17 18 18 19 19 19 19 19 20 20 20 20 20 19 19 18 18 17 16 15 14 14 13 12 11 11 10 10 10 10 9 9 9 9 9 9 8 8 8 8 8 8 9 9 9
16 15 16 17 18 18 18 19 19 19 17 19 20 21 20 20 19 19 19 19 18 17 16 15 14 13 13 12 11 11 10 10 10 9 9 9 9 8 8 8 8 8 8 8 8 8 8 8 8
16 16 17 18 18 18 18 18 18 18 19 20 20 20 20 19 19 19 19 19 18 17 16 15 14 13 13 12 11 11 10 10 10 9 9 9 9 8 8 8 8 8 7 7 7 7 7 7 7
16 16 17 18 18 18 18 17 18 18 20 19 19 19 19 19 19 19 18 18 17 17 16 15 14 14 13 12 11 11 11 10 10 9 9 9 9 8 8 8 8 7 7 7 7 7 7 7 7
16 16 17 17 17 17 16 16 15 18 19 19 19 19 19 18 18 18 18 17 17 17 16 15 15 14 13 12 11 11 11 10 10 9 9 9 9 8 8 8 8 8 7 7 7 7 7 7 7
16 16 15 16 16 16 15 14 14 19 18 18 18 18 18 18 18 18 18 17 17 17 16 15 15 14 13 12 11 11 10 10 10 9 9 9 9 8 8 8 8 8 7 7 7 7 7 7 7
15 14 14 15 15 15 15 14 15 18 17 17 18 18 18 18 18 18 17 17 17 17 16 16 15 14 13 12 11 11 10 10 10 9 9 9 9 8 8 8 8 8 7 7 7 7 7 7 6
14 13 14 14 15 15 14 14 14 17 17 17 17 18 18 18 18 18 17 17 17 17 16 16 15 14 13 12 11 11 10 10 10 9 9 9 9 9 8 8 8 8 7 7 7 7 7 6 6
13 13 13 13 14 14 13 13 14 16 15 16 16 17 17 18 18 17 17 17 17 16 16 15 15 14 13 12 11 11 10 10 9 9 9 9 9 8 8 8 8 7 7 7 7 7 7 6 6
14 13 13 13 14 14 12 12 14 15 14 14 15 16 17 18 18 17 17 17 16 16 16 15 15 14 13 12 11 11 10 10 9 9 9 9 9 8 8 8 8 7 7 7 7 7 6 6 6
13 13 12 12 13 13 12 12 13 12 13 15 15 16 17 18 17 17 17 16 16 16 15 15 14 14 13 12 11 11 10 10 10 9 9 9 9 8 8 8 8 7 7 7 7 6 6 6 6
12 12 12 12 13 13 12 11 12 12 13 14 15 16 17 17 17 17 17 16 16 15 15 15 14 14 13 12 11 11 10 10 10 9 9 9 9 8 8 8 8 7 7 7 7 6 6 6 6
12 12 12 13 12 11 12 11 12 12 12 12 13 14 15 16 17 17 16 16 16 15 15 14 14 13 13 12 11 11 11 10 10 10 9 9 9 8 8 8 8 7 7 7 7 6 6 6 6
12 13 12 12 11 10 11 11 12 12 12 13 12 14 15 16 16 16 16 16 15 15 14 14 13 13 12 12 11 11 11 10 10 10 9 9 9 8 8 8 7 7 7 7 6 6 6 6 5
13 12 11 9 10 10 10 10 11 12 13 13 13 14 14 15 15 15 15 15 14 14 14 13 13 13 12 12 11 11 11 10 10 10 9 9 9 8 8 8 7 7 7 6 6 6 5 5 5
12 12 11 11 10 10 10 10 11 13 13 13 13 14 14 14 14 14 14 14 14 14 14 13 13 13 12 12 11 11 11 10 10 10 9 9 9 8 8 7 7 7 6 6 6 5 5 5 5
11 12 11 11 10 10 10 9 11 12 12 14 14 14 14 13 13 14 14 14 14 14 14 13 13 13 12 12 11 11 10 10 10 10 9 9 8 8 8 7 7 6 6 6 5 5 5 4 4
11 11 12 10 10 10 10 10 10 13 13 12 12 12 12 13 13 13 14 14 14 14 14 13 13 12 12 12 11 11 10 10 10 9 9 8 8 8 7 7 6 6 6 5 5 5 4 4 4
11 10 9 10 10 10 10 10 12 14 15 13 12 11 12 12 13 13 13 14 14 14 13 13 12 12 12 11 11 11 10 10 9 9 8 8 8 7 7 6 6 6 5 5 5 4 4 4 3
10 10 10 9 9 9 10 11 12 13 13 12 11 13 13 13 13 13 13 14 13 13 13 12 12 12 11 11 11 10 10 9 9 8 8 8 7 7 6 6 6 5 5 5 4 4 3 3 3
11 10 10 10 9 8 9 11 13 12 12 11 12 13 14 14 14 14 13 13 13 13 12 12 12 12 11 11 10 10 9 9 9 8 8 7 7 6 6 5 5 5 4 4 4 3 3 3 2
Wind_Speed
4 2 2 4 6 5 2 4 3 3 3 2 2 7 9 7 5 3 0 11 8 11 19 19 19 18 16 15 14 13 12 12 12 12 12 12 11 11 11 11 12 12 13 13 14 14 13 14 14
1 1 4 5 5 2 4 4 5 6 4 4 4 5 5 3 1 3 3 9 10 16 18 18 20 19 17 16 15 13 13 12 12 12 11 11 11 11 11 11 11 11 12 12 12 12 12 12 13
1 3 5 5 4 6 5 5 7 4 3 4 3 2 4 4 3 5 5 11 11 15 17 20 21 19 18 17 15 14 13 12 12 11 11 11 10 10 10 10 10 11 11 11 11 11 11 11 12
3 5 5 5 4 5 5 5 4 1 1 3 5 3 1 0 2 3 9 11 12 12 17 20 21 20 18 17 15 14 14 12 12 11 11 10 10 10 10 10 10 10 10 10 10 10 11 10 10
4 5 5 2 4 4 5 4 4 3 3 3 6 6 3 1 2 6 12 12 14 11 16 19 21 20 19 18 16 14 14 13 12 11 11 10 9 9 9 8 8 9 9 9 9 9 10 9 9
4 5 4 2 4 5 5 3 4 3 2 3 7 6 3 1 4 7 11 11 11 11 14 17 20 19 18 18 16 14 14 13 12 11 11 10 9 8 8 7 7 7 7 7 8 8 8 8 8
5 5 5 3 3 4 3 1 4 4 3 5 8 7 4 1 5 8 9 9 9 12 13 14 17 18 18 18 16 15 14 13 12 11 11 10 9 8 7 6 6 6 6 6 6 6 7 7 7
5 5 4 2 2 3 3 1 2 5 4 1 6 7 6 4 8 9 9 8 8 8 9 11 14 16 16 17 17 16 14 13 12 11 11 10 9 7 7 6 4 4 4 4 4 4 5 6 6
4 5 3 5 5 3 2 1 1 2 3 1 2 3 1 8 11 11 8 7 9 10 8 9 10 13 14 15 16 16 15 14 12 11 12 10 9 7 6 6 4 2 1 1 2 2 4 5 5
5 4 6 5 5 3 2 2 2 1 1 2 3 1 5 8 12 13 12 14 15 15 12 8 9 12 13 13 14 14 14 13 12 12 12 11 10 8 7 6 4 2 1 1 2 3 4 4 5
5 6 5 4 4 3 3 3 2 4 6 9 9 7 7 8 10 12 13 14 15 15 14 11 9 12 13 11 12 12 12 11 12 12 12 11 9 7 6 5 4 3 2 2 3 4 4 4 5
4 4 4 4 3 3 4 3 4 8 12 9 9 6 9 11 13 14 14 13 11 13 15 13 11 11 12 12 11 11 10 10 10 12 13 11 8 7 7 6 6 5 5 4 4 5 5 6 7
4 4 3 4 5 4 5 7 7 9 11 6 4 7 11 13 12 11 10 9 10 13 15 14 12 11 11 10 9 10 10 10 12 12 13 13 9 7 7 7 7 7 7 7 6 6 6 6 7
4 3 4 5 5 4 7 8 5 13 8 6 7 10 11 12 12 9 8 10 12 14 15 14 14 13 12 9 8 9 11 11 12 12 13 13 11 9 7 6 7 8 8 8 8 7 6 6 6
1 2 7 5 4 4 3 8 9 11 4 8 9 9 10 10 9 10 10 10 12 13 14 15 15 13 12 10 10 10 11 11 10 11 12 12 12 10 9 6 6 8 9 8 7 6 5 4 4
2 2 4 6 3 2 4 10 12 4 5 9 9 9 9 9 9 9 9 9 9 10 13 15 14 14 13 10 9 9 10 10 10 10 10 11 11 11 9 6 6 7 6 5 4 3 2 3 3
2 2 5 7 3 2 5 9 11 2 5 9 9 9 9 8 8 8 7 7 8 11 13 15 14 15 13 10 9 9 9 8 8 9 9 9 10 10 8 6 5 5 4 3 2 1 2 2 3
6 5 5 7 4 2 6 12 15 8 8 11 10 9 9 10 11 7 5 5 6 8 10 13 13 12 11 8 6 5 5 5 6 7 7 8 7 8 7 5 4 4 2 1 1 1 1 2 3
6 6 8 9 5 4 10 15 18 12 9 12 12 11 12 12 7 5 4 4 6 7 9 12 13 12 11 8 7 6 5 4 3 4 6 6 6 7 6 4 3 3 2 2 1 1 0 1 2
6 6 8 9 5 5 9 14 15 12 11 13 13 14 14 11 7 7 6 5 6 8 10 11 12 13 12 9 6 4 4 3 3 3 4 5 5 5 5 4 3 3 2 2 2 1 1 1 1
7 8 9 9 7 5 6 10 10 9 7 9 10 11 11 13 13 10 9 7 7 8 10 11 11 12 11 10 7 6 5 4 3 3 2 3 5 6 6 5 4 3 3 2 2 2 2 0 1
9 9 9 7 5 6 2 7 9 9 10 10 11 10 11 11 11 10 10 8 8 7 8 9 10 10 10 11 10 9 6 5 4 4 3 3 5 6 6 6 6 4 3 3 2 2 2 2 1
9 5 5 4 5 5 3 6 10 7 10 13 11 11 11 11 12 12 11 9 7 7 8 8 9 9 9 10 11 10 6 5 4 4 5 4 4 5 6 6 6 4 3 2 2 2 2 2 3
7 6 5 4 3 5 7 8 9 7 10 9 7 7 9 10 10 9 8 8 7 7 7 8 10 9 9 9 9 10 10 9 8 6 5 4 2 2 4 5 5 4 2 2 1 2 2 2 3
6 6 1 3 2 7 4 6 11 14 10 9 11 9 8 10 11 11 11 11 10 10 9 9 11 9 9 9 9 9 10 10 10 8 6 5 3 2 2 3 3 2 2 2 2 1 2 2 3
9 11 9 7 6 5 3 8 10 13 10 9 9 7 7 10 11 12 13 12 12 11 11 10 11 10 9 9 9 8 9 7 6 6 6 6 4 3 3 3 3 2 2 1 1 1 2 2 3
9 8 8 6 2 4 7 8 11 9 8 6 5 4 7 10 11 11 11 11 11 12 11 11 11 10 10 9 9 8 8 7 7 7 5 4 4 3 4 4 3 2 1 1 1 1 2 2 3
9 10 6 6 6 6 7 6 6 10 9 7 6 6 7 8 10 10 10 11 10 10 9 9 10 10 9 9 9 8 8 8 8 7 7 6 5 4 4 3 2 2 1 1 1 2 3 3 4
7 7 7 7 6 6 5 7 8 10 8 8 9 7 8 10 11 11 10 10 9 9 9 9 9 9 9 9 8 9 8 7 7 6 6 6 5 4 4 3 3 2 2 2 2 3 4 5 5
9 11 10 8 7 6 5 8 8 7 8 8 9 6 6 9 9 9 9 9 10 10 10 11 10 10 10 9 9 9 8 8 7 6 6 6 5 4 4 3 3 3 3 3 4 5 5 5 6
Wind_Direction
342 356 69 59 58 57 213 238 219 216 231 220 155 149 152 162 167 194 4 146 141 150 170 170 165 164 159 152 146 141 138 131 124 118 112 107 99 92 86 81 76 74 71 68 68 67 66 63 62
347 84 58 64 92 117 256 236 215 214 204 123 102 119 137 185 176 141 147 168 151 155 166 168 166 164 161 154 149 146 141 135 128 122 116 110 102 95 90 86 81 77 74 71 69 67 66 64 61
169 54 85 81 124 180 220 224 216 239 183 152 133 143 167 171 168 182 183 161 148 156 165 168 167 166 164 158 155 153 148 142 135 129 123 115 107 100 93 88 85 81 77 74 71 69 67 65 61
94 53 59 85 187 217 224 237 199 241 166 171 149 147 240 111 177 174 144 149 148 156 164 170 168 169 167 162 159 156 153 149 144 137 129 121 113 105 98 92 88 85 81 76 73 70 67 64 60
62 81 72 70 248 252 247 252 182 196 198 174 154 163 210 44 75 125 142 151 153 154 163 172 171 171 170 167 164 162 158 155 151 144 136 128 119 111 104 98 93 87 81 76 72 68 65 60 57
60 72 99 202 267 283 275 235 160 194 201 163 153 164 232 88 121 142 147 149 152 153 160 174 174 174 173 171 169 168 164 159 157 151 144 136 127 121 113 105 97 89 81 74 68 63 59 55 52
108 105 152 188 273 297 300 220 166 179 196 210 168 159 263 235 138 135 135 135 141 152 159 175 177 177 177 174 172 173 170 166 163 159 151 143 137 132 124 115 105 94 83 72 63 56 50 47 44
124 109 132 189 217 270 302 305 161 168 201 161 153 163 226 198 127 116 115 125 141 154 164 177 177 176 177 177 175 175 175 172 169 165 157 151 149 144 136 127 120 108 93 76 59 47 40 36 31
94 85 173 207 200 250 300 21 338 160 135 158 220 209 274 124 126 123 129 146 164 174 177 179 176 175 174 175 178 176 177 176 174 168 164 157 151 147 143 146 151 145 114 61 35 20 19 24 17
96 150 215 217 203 224 269 230 241 129 202 247 257 205 113 138 149 156 166 175 182 187 187 183 177 174 173 176 178 176 176 178 174 168 163 158 157 160 161 173 189 206 236 303 336 354 7 5 343
151 187 223 239 231 225 241 243 222 186 233 225 222 213 160 170 175 180 184 186 190 189 189 187 180 176 174 173 172 172 173 172 171 168 163 161 160 165 170 183 204 230 245 266 312 328 324 314 308
174 225 216 240 218 205 222 235 231 210 226 228 220 194 175 184 193 196 195 194 187 187 193 189 182 179 179 174 172 172 170 169 170 173 171 166 165 172 184 196 208 217 225 233 252 268 280 287 289
208 250 239 242 255 243 242 237 239 244 243 246 215 183 191 197 205 208 203 190 183 191 194 192 185 183 179 175 174 174 175 176 178 180 181 179 177 185 194 204 211 219 223 228 237 251 265 276 284
227 245 286 280 260 239 229 253 233 254 242 221 208 208 209 208 210 206 200 194 193 196 195 192 190 185 179 178 176 176 179 181 180 184 189 190 190 191 194 203 213 223 227 232 236 244 253 265 272
136 324 313 286 258 253 217 280 241 250 207 221 224 222 221 221 214 213 211 204 199 197 193 192 192 185 182 180 179 178 180 180 182 190 194 195 197 198 197 200 213 227 232 234 239 250 252 262 268
88 28 296 290 280 239 172 266 272 267 200 234 237 233 230 230 223 226 223 214 203 191 189 191 190 186 185 181 177 176 178 180 186 189 192 198 202 202 196 200 218 228 224 221 227 237 249 263 271
32 258 257 292 273 191 204 258 279 287 218 246 245 238 235 239 239 233 225 213 199 190 184 186 185 184 183 176 172 171 172 176 182 183 188 195 198 198 196 204 215 211 202 208 218 216 226 270 287
223 224 246 258 276 219 249 262 275 272 239 249 249 241 236 234 234 226 219 206 186 179 176 179 178 176 171 162 151 147 150 158 168 173 181 183 185 187 187 190 197 184 167 181 191 225 235 261 290
184 204 246 257 258 256 259 267 275 271 251 247 244 234 229 231 231 208 195 173 155 159 166 172 172 169 165 165 163 158 161 155 149 156 163 166 168 170 168 166 164 158 160 177 166 163 293 328 347
199 233 261 281 272 232 270 274 271 261 245 237 234 229 223 218 206 199 188 174 167 165 167 168 170 169 170 169 158 145 140 136 136 132 132 142 150 156 158 156 152 150 137 118 113 121 102 15 30
212 215 239 259 307 305 299 294 280 279 255 253 238 228 216 207 202 193 186 182 170 170 170 170 168 165 161 148 133 114 98 89 100 112 114 106 131 136 137 139 135 130 129 135 137 141 144 183 345
232 220 223 249 278 285 317 294 285 277 286 265 249 229 217 206 195 187 182 180 179 176 163 158 157 156 153 151 154 152 153 156 166 152 136 110 112 118 122 125 125 124 122 128 143 144 153 157 230
210 202 199 225 222 273 269 257 279 291 276 269 254 233 220 203 191 187 183 176 166 158 154 150 147 148 151 154 157 153 145 139 130 125 124 112 95 107 119 125 124 123 123 131 140 140 160 173 192
147 92 72 54 92 267 228 217 276 253 242 267 272 240 217 196 186 177 162 149 147 147 147 147 149 148 150 150 152 154 150 145 142 141 139 130 116 103 111 121 122 126 129 141 161 170 187 200 211
136 124 4 303 267 249 222 219 252 252 250 253 269 260 215 189 177 170 167 168 165 163 160 156 153 152 153 151 153 156 154 155 157 157 156 151 147 148 148 128 130 133 147 163 167 177 217 217 222
179 166 180 208 230 272 229 235 255 263 269 266 264 252 197 185 183 182 181 176 173 170 167 163 160 156 157 155 154 151 151 152 154 155 156 161 164 165 158 146 145 148 156 161 166 192 232 224 235
160 197 180 155 206 265 264 273 296 284 279 277 275 228 200 192 188 186 180 177 175 174 175 171 164 157 160 157 149 151 153 152 151 149 146 151 156 156 152 150 146 149 159 178 179 219 250 248 248
159 152 131 160 198 242 267 262 250 278 284 292 273 244 218 194 188 184 183 183 180 176 169 166 165 163 160 157 156 157 156 153 149 147 153 157 158 154 152 153 157 168 188 206 213 244 252 254 259
143 158 162 167 178 184 246 261 231 243 269 283 276 251 215 198 193 190 186 181 173 166 166 169 167 159 160 162 157 152 154 150 148 154 160 160 158 160 164 170 177 196 220 225 230 248 257 258 266
177 178 161 176 212 198 208 263 265 253 269 271 275 259 219 202 194 187 179 172 173 176 176 176 174 171 169 163 158 156 153 151 154 161 163 160 163 168 172 177 192 216 229 235 240 257 259 257 264
Height
1517 1518 1521 1523 1528 1540 1540 1533 1529 1528 1527 1525 1525 1526 1528 1530 1534 1537 1533 1532 1533 1534 1536 1538 1540 1543 1545 1547 1548 1549 1551 1552 1553 1553 1554 1554 1554 1554 1554 1554 1554 1555 1555 1555 1555 1555 1555 1555 1555
1517 1519 1522 1523 1535 1547 1541 1530 1528 1525 1524 1524 1525 1526 1527 1528 1528 1530 1531 1532 1533 1535 1536 1538 1540 1543 1545 1547 1548 1550 1551 1552 1553 1554 1554 1555 1555 1555 1555 1555 1555 1555 1555 1555 1555 1555 1555 1555 1555
1517 1519 1522 1526 1537 1542 1534 1525 1524 1522 1523 1524 1525 1525 1526 1527 1528 1529 1531 1532 1533 1535 1536 1538 1540 1542 1545 1547 1548 1550 1551 1553 1553 1554 1555 1555 1555 1555 1556 1556 1556 1556 1556 1556 1556 1556 1556 1556 1556
1518 1521 1522 1530 1533 1531 1526 1521 1521 1522 1523 1524 1524 1525 1525 1527 1528 1529 1530 1532 1533 1535 1536 1538 1540 1542 1544 1546 1548 1550 1551 1553 1554 1555 1555 1556 1556 1556 1556 1556 1557 1557 1557 1557 1557 1557 1557 1557 1556
1518 1520 1527 1534 1530 1525 1521 1520 1520 1521 1522 1523 1523 1523 1524 1526 1527 1528 1530 1532 1533 1534 1536 1538 1540 1542 1545 1546 1548 1550 1552 1553 1554 1555 1556 1556 1557 1557 1557 1557 1558 1558 1558 1558 1558 1558 1558 1557 1557
1519 1520 1534 1536 1529 1523 1520 1518 1519 1520 1521 1522 1522 1523 1523 1525 1526 1528 1530 1532 1533 1535 1536 1538 1540 1542 1544 1546 1548 1550 1552 1553 1554 1556 1556 1557 1557 1557 1558 1558 1558 1558 1559 1559 1559 1558 1558 1558 1558
1519 1524 1531 1530 1529 1524 1519 1518 1518 1519 1520 1521 1521 1522 1522 1524 1525 1527 1529 1531 1532 1534 1536 1538 1540 1542 1544 1546 1548 1550 1552 1553 1554 1556 1557 1557 1558 1558 1558 1559 1559 1559 1559 1559 1559 1559 1559 1559 1558
1517 1522 1528 1529 1527 1523 1518 1517 1517 1518 1519 1520 1521 1521 1521 1523 1524 1526 1528 1530 1531 1533 1535 1537 1539 1541 1543 1545 1547 1549 1551 1553 1554 1556 1557 1557 1558 1559 1559 1559 1560 1560 1560 1560 1560 1560 1559 1559 1559
1517 1526 1530 1526 1524 1520 1517 1517 1517 1517 1518 1519 1519 1519 1520 1521 1522 1524 1525 1527 1529 1531 1533 1535 1537 1539 1542 1544 1547 1549 1550 1552 1554 1555 1556 1557 1558 1558 1559 1559 1560 1560 1560 1560 1560 1560 1560 1559 1559
1517 1527 1524 1519 1518 1517 1516 1516 1516 1517 1517 1518 1518 1518 1518 1519 1520 1521 1522 1524 1526 1528 1530 1533 1535 1538 1540 1543 1545 1547 1549 1551 1553 1554 1555 1556 1557 1558 1559 1559 1560 1560 1560 1560 1560 1560 1559 1559 1559
1515 1519 1517 1515 1515 1515 1515 1515 1515 1515 1516 1515 1515 1515 1515 1516 1517 1518 1520 1522 1523 1526 1528 1530 1533 1536 1538 1541 1543 1546 1548 1550 1551 1553 1554 1556 1557 1558 1558 1559 1559 1559 1560 1560 1559 1559 1559 1558 1558
1515 1514 1514 1513 1513 1514 1513 1513 1513 1512 1511 1511 1512 1512 1512 1513 1514 1515 1517 1519 1521 1523 1525 1528 1531 1534 1536 1539 1542 1544 1546 1548 1550 1552 1553 1554 1555 1556 1557 1558 1558 1558 1558 1558 1558 1558 1558 1557 1557
1513 1512 1511 1511 1511 1511 1511 1510 1509 1507 1506 1507 1508 1508 1508 1509 1511 1512 1514 1516 1518 1520 1523 1525 1528 1531 1534 1537 1539 1542 1544 1547 1549 1550 1552 1553 1554 1555 1556 1557 1557 1557 1557 1557 1557 1556 1556 1556 1555
1510 1510 1510 1509 1509 1508 1508 1506 1507 1500 1502 1502 1503 1503 1504 1505 1507 1509 1511 1512 1514 1517 1520 1522 1525 1528 1531 1534 1537 1540 1543 1545 1547 1549 1551 1552 1553 1554 1554 1555 1555 1555 1555 1555 1555 1555 1554 1553 1553
1509 1510 1509 1507 1506 1505 1506 1506 1500 1496 1498 1498 1498 1499 1500 1501 1503 1505 1506 1508 1510 1513 1516 1519 1522 1525 1529 1532 1535 1538 1541 1543 1545 1547 1549 1550 1551 1552 1552 1553 1553 1553 1553 1553 1553 1552 1552 1551 1550
1509 1513 1515 1508 1505 1504 1509 1508 1495 1494 1494 1494 1494 1495 1496 1497 1499 1501 1502 1504 1506 1509 1512 1515 1519 1522 1526 1529 1533 1536 1539 1541 1543 1545 1547 1548 1549 1550 1550 1551 1551 1551 1551 1551 1550 1550 1549 1548 1546
1515 1519 1517 1511 1504 1504 1506 1505 1493 1492 1492 1491 1490 1491 1492 1493 1495 1497 1498 1500 1502 1504 1507 1511 1514 1518 1523 1527 1531 1534 1537 1539 1541 1543 1544 1546 1547 1547 1548 1548 1549 1549 1548 1548 1547 1547 1546 1544 1542
1518 1518 1516 1513 1504 1504 1505 1501 1491 1489 1489 1487 1486 1486 1487 1488 1490 1493 1494 1496 1498 1500 1503 1507 1511 1515 1520 1524 1528 1531 1534 1536 1538 1540 1542 1543 1544 1545 1545 1546 1546 1546 1545 1545 1544 1543 1542 1541 1539
1509 1513 1514 1509 1502 1503 1503 1497 1488 1483 1483 1481 1480 1480 1481 1483 1486 1488 1490 1492 1494 1497 1500 1503 1507 1511 1516 1520 1524 1527 1530 1533 1536 1538 1539 1540 1541 1542 1542 1543 1543 1543 1542 1542 1541 1540 1539 1537 1536
1507 1511 1512 1506 1501 1502 1500 1494 1483 1478 1475 1472 1471 1471 1473 1476 1480 1482 1485 1488 1490 1493 1496 1499 1503 1507 1512 1516 1520 1524 1528 1531 1533 1535 1536 1537 1538 1539 1539 1539 1539 1539 1539 1538 1537 1536 1535 1534 1533
1506 1510 1508 1507 1501 1499 1500 1493 1482 1471 1468 1465 1464 1464 1466 1469 1472 1476 1480 1483 1486 1490 1493 1496 1500 1504 1509 1513 1518 1522 1525 1528 1530 1531 1533 1534 1535 1535 1536 1536 1536 1536 1535 1535 1534 1533 1533 1532 1531
1504 1500 1502 1503 1508 1509 1503 1505 1484 1473 1467 1461 1458 1458 1458 1461 1466 1471 1475 1479 1482 1486 1490 1494 1498 1502 1506 1510 1514 1518 1521 1524 1526 1529 1530 1531 1532 1533 1533 1533 1533 1533 1532 1532 1531 1530 1530 1529 1528
1495 1494 1499 1501 1505 1509 1505 1506 1486 1473 1467 1456 1452 1451 1452 1456 1460 1465 1470 1475 1479 1483 1487 1491 1495 1499 1503 1507 1512 1515 1518 1521 1524 1526 1527 1528 1529 1530 1530 1530 1530 1530 1529 1529 1528 1527 1527 1525 1524
1489 1496 1501 1507 1509 1513 1503 1505 1489 1472 1459 1452 1448 1447 1448 1451 1456 1461 1467 1472 1476 1480 1484 1488 1492 1496 1500 1505 1509 1512 1515 1518 1521 1522 1524 1525 1526 1527 1527 1527 1527 1527 1527 1526 1525 1524 1523 1522 1521
1488 1500 1511 1511 1515 1509 1497 1499 1483 1457 1451 1449 1446 1444 1445 1448 1452 1457 1462 1467 1472 1477 1481 1485 1489 1493 1498 1502 1506 1509 1513 1515 1517 1519 1521 1522 1523 1524 1524 1524 1524 1524 1523 1523 1522 1521 1520 1518 1517
1485 1490 1504 1510 1510 1504 1496 1495 1471 1450 1447 1444 1443 1442 1442 1445 1449 1453 1458 1463 1468 1473 1478 1482 1486 1490 1495 1498 1502 1506 1509 1512 1514 1516 1518 1519 1520 1521 1521 1521 1521 1520 1520 1519 1518 1517 1516 1514 1513
1482 1486 1485 1498 1500 1502 1495 1484 1466 1445 1442 1441 1441 1440 1440 1442 1446 1450 1456 1461 1466 1470 1475 1479 1484 1488 1492 1496 1499 1503 1506 1509 1511 1513 1515 1516 1517 1517 1517 1517 1517 1517 1516 1515 1514 1513 1511 1510 1508
1469 1476 1490 1495 1501 1500 1491 1483 1470 1450 1442 1440 1439 1439 1439 1441 1444 1448 1453 1458 1463 1468 1473 1477 1481 1485 1489 1493 1496 1500 1503 1506 1508 1510 1511 1512 1513 1513 1514 1513 1513 1512 1512 1511 1509 1508 1506 1504 1503
1472 1476 1477 1485 1490 1495 1492 1479 1453 1446 1442 1441 1438 1437 1437 1439 1442 1446 1451 1456 1461 1466 1470 1474 1478 1482 1486 1490 1493 1497 1499 1502 1504 1506 1507 1509 1509 1510 1510 1509 1509 1508 1507 1506 1504 1503 1501 1499 1497
1456 1462 1469 1480 1486 1488 1487 1473 1442 1442 1440 1438 1436 1435 1436 1438 1441 1445 1449 1453 1458 1462 1466 1470 1474 1478 1482 1486 1490 1493 1496 1498 1500 1502 1504 1505 1505 1505 1505 1505 1504 1503 1502 1500 1499 1497 1495 1493 1491